GW5470 Weather Reports


time (UTC)temp
C
wind
direction
speed
KPH
gust
KPH
rain 1hr
cm
rain 24hr
cm
rain mn
cm
humidity
%
barometer
mb
20260510221214 21 191 1.6 1.6 0.00 0.08 0.08 41 1017.0
20260510220711 22 338 8.0 11.3 0.00 0.08 0.08 41 1017.0
20260510220211 22 218 1.6 3.2 0.00 0.08 0.08 45 1016.6
20260510215708 21 212 1.6 1.6 0.00 0.08 0.08 46 1016.6
20260510215207 22 125 3.2 3.2 0.00 0.08 0.08 39 1016.6
20260510214704 22 98 1.6 1.6 0.00 0.08 0.08 44 1016.6
20260510214200 21 348 1.6 3.2 0.00 0.08 0.08 42 1016.7
20260510213657 21 239 8.0 9.7 0.00 0.08 0.08 40 1016.6
20260510213154 21 189 1.6 3.2 0.00 0.08 0.08 40 1016.5
20260510212650 22 257 4.8 4.8 0.00 0.08 0.08 39 1016.5
20260510212148 22 186 3.2 3.2 0.00 0.08 0.08 41 1016.6
20260510211644 22 185 1.6 3.2 0.00 0.08 0.08 43 1016.6
20260510211138 22 205 4.8 6.4 0.00 0.08 0.08 39 1016.5
20260510210635 22 209 1.6 1.6 0.00 0.08 0.08 41 1016.5
20260510210131 21 258 1.6 1.6 0.00 0.08 0.08 42 1016.5
20260510205630 21 331 4.8 6.4 0.00 0.08 0.08 41 1016.4
20260510205126 21 343 9.7 12.9 0.00 0.08 0.08 40 1016.4
20260510204622 22 34 3.2 4.8 0.00 0.08 0.08 44 1016.3
20260510204119 22 20 3.2 4.8 0.00 0.08 0.08 39 1016.3
20260510203615 22 223 4.8 4.8 0.00 0.08 0.08 45 1016.3
20260510203113 21 21 3.2 4.8 0.00 0.08 0.08 41 1016.4
20260510202612 20 333 9.7 12.9 0.00 0.08 0.08 43 1016.4
20260510202108 21 49 4.8 4.8 0.00 0.08 0.08 42 1016.4
20260510201605 21 296 6.4 6.4 0.00 0.08 0.08 44 1016.3
20260510201102 21 19 12.9 16.1 0.00 0.08 0.08 42 1016.3
20260510200558 21 202 1.6 1.6 0.00 0.08 0.08 43 1016.3
20260510200056 20 194 1.6 3.2 0.00 0.08 0.08 49 1016.4
20260510195554 21 106 0.0 3.2 0.00 0.08 0.08 47 1016.5
20260510195050 21 140 3.2 3.2 0.00 0.08 0.08 45 1016.4
20260510194544 21 157 3.2 3.2 0.00 0.08 0.08 50 1016.3
20260510194042 21 353 6.4 9.7 0.00 0.08 0.08 47 1016.4
20260510193541 21 200 1.6 3.2 0.00 0.08 0.08 46 1016.8
20260510193037 21 313 3.2 4.8 0.00 0.08 0.08 48 1016.7
20260510192537 21 122 6.4 6.4 0.00 0.08 0.08 49 1016.8
20260510192033 21 345 6.4 6.4 0.00 0.08 0.08 47 1016.8
20260510191530 21 133 1.6 1.6 0.00 0.08 0.08 50 1016.8
20260510191027 21 35 4.8 6.4 0.00 0.08 0.08 52 1016.8
20260510190524 21 322 9.7 12.9 0.00 0.08 0.08 50 1016.8
20260510190022 21 332 4.8 9.7 0.00 0.08 0.08 50 1016.7
20260510185518 21 6 9.7 12.9 0.00 0.08 0.08 50 1016.8
20260510185015 21 61 8.0 11.3 0.00 0.08 0.08 49 1016.7
20260510184513 21 245 4.8 6.4 0.00 0.08 0.08 51 1016.6
20260510184008 21 156 4.8 4.8 0.00 0.08 0.08 47 1016.8
20260510183504 21 234 3.2 3.2 0.00 0.08 0.08 47 1016.7
20260510182959 21 193 4.8 4.8 0.00 0.08 0.08 46 1016.8
20260510182456 21 309 3.2 4.8 0.00 0.08 0.08 49 1017.0
20260510181951 21 162 3.2 3.2 0.00 0.08 0.08 52 1017.0
20260510181450 20 192 0.0 0.0 0.00 0.08 0.08 50 1017.0
20260510180945 20 196 0.0 0.0 0.00 0.08 0.08 50 1016.8
20260510180442 20 138 4.8 4.8 0.00 0.08 0.08 51 1016.7
20260510175939 20 104 4.8 4.8 0.00 0.08 0.08 52 1016.8
20260510175435 20 151 3.2 3.2 0.00 0.08 0.08 55 1016.8
20260510174931 20 324 6.4 6.4 0.00 0.08 0.08 52 1016.7
20260510174429 20 205 3.2 3.2 0.00 0.08 0.08 53 1016.8
20260510173925 20 93 3.2 4.8 0.00 0.08 0.08 53 1016.8
20260510173421 20 125 6.4 9.7 0.00 0.08 0.08 53 1016.8
20260510172918 20 113 6.4 6.4 0.00 0.08 0.08 52 1017.0
20260510172414 19 239 4.8 6.4 0.00 0.08 0.08 51 1017.1
20260510171910 19 350 6.4 6.4 0.00 0.08 0.08 54 1016.8
20260510171408 19 182 1.6 3.2 0.00 0.08 0.08 58 1016.7
20260510170904 19 175 1.6 1.6 0.00 0.08 0.08 62 1016.8
20260510170401 19 165 4.8 6.4 0.00 0.08 0.08 57 1016.9
20260510165856 18 69 3.2 4.8 0.00 0.08 0.08 66 1017.0
20260510165352 19 336 6.4 9.7 0.00 0.08 0.08 61 1017.0
20260510164850 18 19 4.8 6.4 0.00 0.08 0.08 60 1016.9
20260510164347 18 62 4.8 4.8 0.00 0.08 0.08 63 1016.7
20260510163846 18 209 1.6 3.2 0.00 0.08 0.08 69 1016.9
20260510163344 18 242 3.2 3.2 0.00 0.08 0.08 67 1017.0
20260510162843 17 354 9.7 11.3 0.00 0.08 0.08 70 1017.0
20260510162341 17 260 3.2 4.8 0.00 0.08 0.08 69 1017.1
20260510161836 17 204 1.6 1.6 0.00 0.08 0.08 76 1017.0
20260510161332 17 80 3.2 3.2 0.00 0.08 0.08 71 1017.0
20260510160830 17 292 3.2 4.8 0.00 0.08 0.08 72 1017.1
20260510160321 17 146 1.6 3.2 0.00 0.08 0.08 75 1016.9
20260510155820 17 152 0.0 1.6 0.00 0.08 0.08 75 1017.0
20260510155318 16 135 1.6 1.6 0.00 0.08 0.08 79 1016.8
20260510154813 17 206 1.6 1.6 0.00 0.08 0.08 78 1016.5
20260510154309 16 351 4.8 4.8 0.00 0.08 0.08 80 1016.7
20260510153803 16 178 0.0 0.0 0.00 0.08 0.08 81 1016.7
20260510153300 16 340 3.2 4.8 0.00 0.08 0.08 83 1016.6
20260510152757 16 197 1.6 1.6 0.00 0.08 0.08 81 1016.5
20260510152253 16 279 3.2 3.2 0.00 0.08 0.08 84 1016.3
20260510151749 16 343 4.8 4.8 0.00 0.08 0.08 85 1016.4
20260510151248 15 157 1.6 3.2 0.00 0.08 0.08 83 1016.1
20260510150743 16 171 0.0 0.0 0.00 0.08 0.08 86 1016.2
20260510150240 15 209 1.6 1.6 0.00 0.08 0.08 89 1015.8
20260510145736 15 228 1.6 3.2 0.00 0.08 0.08 87 1015.9
20260510145232 15 226 3.2 3.2 0.00 0.08 0.08 88 1015.7
20260510144723 15 161 1.6 1.6 0.00 0.08 0.08 89 1015.5
20260510144220 15 194 0.0 0.0 0.00 0.08 0.08 89 1015.7
20260510143714 15 161 1.6 1.6 0.00 0.08 0.08 90 1015.6
20260510143211 15 326 3.2 4.8 0.00 0.08 0.08 93 1015.5
20260510142707 14 193 1.6 3.2 0.00 0.08 0.08 95 1015.6
20260510142204 14 225 3.2 3.2 0.00 0.08 0.08 96 1015.4
20260510141701 13 204 1.6 1.6 0.00 0.08 0.08 96 1015.6
20260510141200 13 198 1.6 1.6 0.00 0.08 0.08 97 1015.6
20260510140655 14 184 0.0 0.0 0.00 0.08 0.08 97 1015.5
20260510140155 13 183 0.0 0.0 0.13 0.08 0.08 97 1015.3
20260510135650 13 183 0.0 1.6 0.13 0.08 0.08 97 1015.3
20260510135146 13 183 0.0 0.0 0.00 0.05 0.05 96 1015.4
20260510134644 13 184 0.0 0.0 0.18 0.05 0.05 96 1015.5
20260510134141 13 183 0.0 0.0 0.30 0.05 0.05 95 1015.8
20260510133637 13 181 0.0 1.6 0.13 0.03 0.03 94 1015.8
20260510133132 14 161 0.0 1.6 0.00 0.00 0.00 92 1015.6
20260510132629 13 184 0.0 1.6 0.00 0.00 0.00 94 1015.9
20260510132127 13 192 0.0 0.0 0.00 0.00 0.00 97 1015.2
20260510131624 13 194 1.6 1.6 0.00 0.00 0.00 98 1015.1
20260510131121 13 185 0.0 0.0 0.00 0.00 0.00 98 1015.2
20260510130617 13 169 0.0 1.6 0.00 0.00 0.00 99 1014.8
20260510130115 13 189 0.0 0.0 0.00 0.00 0.00 99 1015.0
20260510125611 13 189 0.0 0.0 0.00 0.00 0.00 99 1015.1
20260510125107 13 190 0.0 0.0 0.00 0.00 0.00 99 1015.0
20260510124604 12 190 0.0 0.0 0.00 0.00 0.00 99 1015.1
20260510124101 12 189 0.0 0.0 0.00 0.00 0.00 99 1014.7
20260510123556 12 189 0.0 0.0 0.00 0.00 0.00 99 1014.7
20260510123053 12 189 0.0 0.0 0.00 0.00 0.00 99 1014.9
20260510122548 12 189 0.0 0.0 0.00 0.00 0.00 99 1014.7
20260510122045 12 189 0.0 0.0 0.00 0.00 0.00 99 1014.5
20260510121542 12 189 0.0 0.0 0.00 0.00 0.00 99 1014.9
20260510121039 11 189 0.0 0.0 0.00 0.00 0.00 99 1014.5
20260510120537 11 189 0.0 0.0 0.00 0.00 0.00 99 1014.5
20260510120032 11 189 0.0 0.0 0.00 0.00 0.00 99 1014.4
20260510115529 11 189 0.0 0.0 0.00 0.00 0.00 99 1014.3
20260510115026 11 189 0.0 0.0 0.00 0.00 0.00 99 1014.5
20260510114522 11 189 0.0 0.0 0.00 0.00 0.00 99 1014.2
20260510114018 10 189 0.0 0.0 0.00 0.00 0.00 99 1014.1
20260510113513 10 189 0.0 0.0 0.00 0.00 0.00 99 1014.0
20260510113011 10 190 0.0 0.0 0.00 0.00 0.00 99 1013.8
20260510112508 10 190 0.0 0.0 0.00 0.00 0.00 99 1013.9
20260510112004 10 189 0.0 0.0 0.00 0.00 0.00 99 1013.7
20260510111500 10 189 0.0 0.0 0.00 0.00 0.00 99 1013.7
20260510110956 9 189 0.0 0.0 0.00 0.00 0.00 99 1013.6
20260510110453 9 189 0.0 0.0 0.00 0.00 0.00 99 1013.5
20260510105949 9 189 0.0 0.0 0.00 0.00 0.00 99 1013.1
20260510105444 9 189 0.0 0.0 0.00 0.00 0.00 99 1013.1
20260510104940 9 189 0.0 0.0 0.00 0.00 0.00 99 1013.0
20260510104437 8 189 0.0 0.0 0.00 0.00 0.00 99 1013.0
20260510103933 8 189 0.0 0.0 0.00 0.00 0.00 99 1013.0
20260510103432 8 201 0.0 0.0 0.00 0.00 0.00 99 1012.9
20260510102931 8 201 0.0 0.0 0.00 0.00 0.00 99 1012.8
20260510102428 8 201 0.0 0.0 0.00 0.00 0.00 99 1012.9
20260510101925 8 201 0.0 0.0 0.00 0.00 0.00 99 1012.6
20260510101423 8 201 0.0 0.0 0.00 0.00 0.00 99 1012.7
20260510100921 8 201 0.0 0.0 0.00 0.00 0.00 99 1012.8
20260510100417 8 201 0.0 0.0 0.00 0.00 0.00 99 1012.6
20260510095913 8 201 0.0 0.0 0.00 0.00 0.00 99 1012.5
20260510095408 8 201 0.0 0.0 0.00 0.00 0.00 99 1012.4
20260510094908 8 201 0.0 0.0 0.00 0.00 0.00 99 1012.5
20260510094403 8 201 0.0 0.0 0.00 0.00 0.00 99 1012.4
20260510093859 8 201 0.0 0.0 0.00 0.00 0.00 99 1012.2
20260510093355 8 201 0.0 0.0 0.00 0.00 0.00 99 1012.2
20260510092852 8 201 0.0 0.0 0.00 0.00 0.00 99 1012.2
20260510092348 8 201 0.0 0.0 0.00 0.00 0.00 99 1012.0
20260510091843 8 201 0.0 0.0 0.00 0.00 0.00 99 1011.8
20260510091341 8 201 0.0 0.0 0.00 0.00 0.00 99 1011.9
20260510090837 8 201 0.0 0.0 0.00 0.00 0.00 99 1011.7
20260510090329 8 201 0.0 0.0 0.00 0.00 0.00 99 1011.7
20260510085824 8 201 0.0 0.0 0.00 0.00 0.00 99 1011.7
20260510085318 8 201 0.0 0.0 0.00 0.00 0.00 99 1011.6
20260510084815 8 201 0.0 0.0 0.00 0.00 0.00 99 1011.8
20260510084312 8 201 0.0 0.0 0.00 0.00 0.00 99 1011.6
20260510083809 9 201 0.0 0.0 0.00 0.00 0.00 99 1011.8
20260510083306 9 201 0.0 0.0 0.00 0.00 0.00 99 1011.5
20260510082801 8 201 0.0 0.0 0.00 0.00 0.00 99 1011.6
20260510082258 8 201 0.0 0.0 0.00 0.00 0.00 99 1011.5
20260510081756 9 201 0.0 0.0 0.00 0.00 0.00 99 1011.6
20260510081253 8 201 0.0 0.0 0.00 0.00 0.00 99 1011.4
20260510080749 9 201 0.0 0.0 0.00 0.00 0.00 99 1011.7
20260510080244 9 201 0.0 0.0 0.00 0.00 0.00 99 1011.6
20260510075741 9 201 0.0 0.0 0.00 0.00 0.00 99 1011.6
20260510075239 9 201 0.0 0.0 0.00 0.00 0.00 99 1011.5
20260510074736 9 201 0.0 0.0 0.00 0.00 0.00 99 1011.7
20260510074232 9 201 0.0 0.0 0.00 0.00 0.00 99 1011.6
20260510073728 9 201 0.0 0.0 0.00 0.00 0.00 99 1011.7
20260510073224 9 201 0.0 0.0 0.00 0.00 0.00 99 1011.5
20260510072720 9 201 0.0 0.0 0.00 0.00 0.00 99 1011.5
20260510072217 9 201 0.0 0.0 0.00 0.00 0.00 99 1011.6
20260510071714 9 201 0.0 0.0 0.00 0.00 0.00 99 1011.3
20260510071210 9 201 0.0 0.0 0.00 0.00 0.00 99 1011.3
20260510070709 9 201 0.0 0.0 0.00 0.00 0.00 99 1011.2
20260510070205 9 201 0.0 0.0 0.00 0.00 0.00 99 1011.4
20260510065700 9 201 0.0 0.0 0.00 0.00 0.00 99 1011.4
20260510065157 9 201 0.0 0.0 0.00 0.00 0.00 99 1011.3
20260510064653 9 201 0.0 0.0 0.00 0.00 0.00 99 1011.3
20260510064151 9 201 0.0 0.0 0.00 0.00 0.00 99 1011.4
20260510063648 10 201 0.0 0.0 0.00 0.00 0.00 99 1011.3
20260510063144 10 201 0.0 0.0 0.00 0.00 0.00 99 1011.6
20260510062640 10 201 0.0 0.0 0.00 0.00 0.00 99 1011.7
20260510062137 10 201 0.0 0.0 0.00 0.00 0.00 99 1011.2
20260510061632 10 201 0.0 0.0 0.00 0.00 0.00 99 1011.1
20260510061130 10 201 0.0 0.0 0.00 0.00 0.00 99 1011.4
20260510060625 10 201 0.0 0.0 0.00 0.00 0.00 99 1011.2
20260510060122 10 201 0.0 0.0 0.00 0.00 0.00 99 1011.2
20260510055618 10 201 0.0 0.0 0.00 0.00 0.00 99 1011.3
20260510055117 10 201 0.0 0.0 0.00 0.00 0.00 99 1011.2
20260510054611 10 201 0.0 0.0 0.00 0.00 0.00 99 1011.3
20260510054107 10 201 0.0 0.0 0.00 0.00 0.00 99 1011.5
20260510053606 10 201 0.0 0.0 0.00 0.00 0.00 99 1011.2
20260510053103 10 201 0.0 0.0 0.00 0.00 0.00 99 1011.3
20260510052559 10 201 0.0 0.0 0.00 0.00 0.00 99 1011.1
20260510052056 10 201 0.0 0.0 0.00 0.00 0.00 99 1011.2
20260510051551 10 201 0.0 0.0 0.00 0.00 0.00 99 1011.3
20260510051049 10 201 0.0 0.0 0.00 0.00 0.00 98 1011.3
20260510050546 10 201 0.0 0.0 0.00 0.00 0.00 98 1011.2
20260510050043 10 201 0.0 0.0 0.00 0.00 0.00 98 1011.3
20260510045540 10 201 0.0 0.0 0.00 0.00 0.00 98 1011.3
20260510045036 10 201 0.0 0.0 0.00 0.00 0.00 98 1011.3
20260510044533 10 201 0.0 0.0 0.00 0.00 0.00 98 1011.2
20260510044030 10 201 0.0 0.0 0.00 0.00 0.00 98 1011.3
20260510043525 10 201 0.0 0.0 0.00 0.00 0.00 98 1011.2
20260510043021 10 201 0.0 0.0 0.00 0.00 0.00 98 1011.2
20260510042515 10 201 0.0 0.0 0.00 0.00 0.00 98 1011.2
20260510042010 10 201 0.0 0.0 0.00 0.00 0.00 98 1011.2
20260510041509 10 201 0.0 0.0 0.00 0.00 0.00 98 1011.4
20260510041006 10 201 0.0 0.0 0.00 0.00 0.00 98 1011.1
20260510040502 10 201 0.0 0.0 0.00 0.00 0.00 98 1011.3
20260510035958 10 201 0.0 0.0 0.00 0.64 0.64 98 1011.2
20260510035455 10 201 0.0 0.0 0.00 0.64 0.64 98 1011.5
20260510034954 10 201 0.0 0.0 0.00 0.64 0.64 98 1011.4
20260510034453 10 201 0.0 0.0 0.00 0.64 0.64 98 1011.1
20260510033949 10 201 0.0 0.0 0.00 0.64 0.64 97 1011.2
20260510033445 10 201 0.0 0.0 0.00 0.64 0.64 97 1011.2
20260510032943 10 201 0.0 0.0 0.00 0.64 0.64 97 1011.2
20260510032439 10 201 0.0 0.0 0.00 0.64 0.64 97 1011.2
20260510031939 10 201 0.0 0.0 0.00 0.64 0.64 97 1011.1
20260510031435 10 201 0.0 0.0 0.00 0.64 0.64 97 1011.1
20260510030931 10 201 0.0 0.0 0.00 0.64 0.64 97 1011.0
20260510030426 10 201 0.0 0.0 0.00 0.64 0.64 97 1010.9
20260510025924 10 201 0.0 0.0 0.00 0.64 0.64 97 1010.9
20260510025421 11 201 0.0 0.0 0.00 0.64 0.64 97 1010.8
20260510024919 10 201 0.0 0.0 0.00 0.64 0.64 96 1010.9
20260510024415 10 201 0.0 0.0 0.00 0.64 0.64 96 1010.9
20260510023911 11 201 0.0 0.0 0.00 0.64 0.64 96 1011.1
20260510023408 11 201 0.0 0.0 0.00 0.64 0.64 96 1010.7
20260510022905 11 201 0.0 0.0 0.00 0.64 0.64 96 1010.8
20260510022404 11 201 0.0 0.0 0.00 0.64 0.64 96 1010.6
20260510021903 11 201 0.0 0.0 0.00 0.64 0.64 95 1010.6
20260510021401 11 201 0.0 0.0 0.00 0.64 0.64 95 1010.7
20260510020857 11 201 0.0 0.0 0.00 0.64 0.64 95 1010.6
20260510020353 11 201 0.0 0.0 0.00 0.64 0.64 95 1010.6
20260510015848 11 201 0.0 0.0 0.00 0.64 0.64 95 1010.5
20260510015344 11 201 0.0 0.0 0.00 0.64 0.64 94 1010.4
20260510014840 11 201 0.0 0.0 0.00 0.64 0.64 94 1010.2
20260510014337 11 201 0.0 0.0 0.00 0.64 0.64 94 1009.9
20260510013833 12 201 0.0 0.0 0.00 0.64 0.64 93 1010.0
20260510013329 12 201 0.0 0.0 0.00 0.64 0.64 93 1010.0
20260510012824 12 201 0.0 0.0 0.00 0.64 0.64 92 1009.9
20260510012323 12 201 0.0 0.0 0.00 0.64 0.64 92 1009.6
20260510011818 12 201 0.0 0.0 0.00 0.64 0.64 91 1009.6
20260510011314 12 201 0.0 0.0 0.00 0.64 0.64 91 1009.8
20260510010811 12 201 0.0 0.0 0.00 0.64 0.64 91 1009.4
20260510010308 12 201 0.0 0.0 0.00 0.64 0.64 90 1009.4
20260510005805 12 201 0.0 0.0 0.00 0.64 0.64 90 1009.4
20260510005301 13 201 0.0 0.0 0.00 0.64 0.64 89 1009.3
20260510004759 13 201 0.0 0.0 0.00 0.64 0.64 90 1009.2
20260510004256 13 201 0.0 0.0 0.00 0.64 0.64 88 1009.2
20260510003753 14 201 0.0 0.0 0.00 0.64 0.64 86 1009.0
20260510003250 15 201 0.0 0.0 0.00 0.64 0.64 86 1008.9
20260510002748 15 201 0.0 0.0 0.00 0.64 0.64 82 1009.0
20260510002247 15 201 0.0 0.0 0.00 0.64 0.64 83 1008.8
20260510001743 16 201 0.0 0.0 0.00 0.64 0.64 78 1008.8
20260510001242 16 201 0.0 0.0 0.00 0.64 0.64 79 1008.7
20260510000737 16 201 0.0 0.0 0.00 0.64 0.64 76 1008.6
20260510000235 17 201 1.6 1.6 0.00 0.64 0.64 74 1008.7
20260509235731 17 200 0.0 0.0 0.00 0.64 0.64 70 1008.6
20260509235227 18 201 1.6 1.6 0.00 0.64 0.64 65 1008.7
20260509234723 18 192 0.0 0.0 0.00 0.64 0.64 64 1008.6
20260509234221 19 190 1.6 1.6 0.00 0.64 0.64 62 1008.6
20260509233719 19 201 0.0 1.6 0.00 0.64 0.64 62 1008.6
20260509233216 20 187 1.6 1.6 0.00 0.64 0.64 57 1008.4
20260509232712 20 207 4.8 4.8 0.00 0.64 0.64 54 1008.7
20260509232209 21 215 1.6 3.2 0.00 0.64 0.64 52 1008.5
20260509231700 20 178 4.8 6.4 0.00 0.64 0.64 54 1008.5
20260509231158 20 192 1.6 1.6 0.00 0.64 0.64 55 1008.5
20260509230654 20 195 0.0 0.0 0.00 0.64 0.64 56 1008.2
20260509230151 20 212 3.2 3.2 0.00 0.64 0.64 54 1008.3
20260509225647 21 178 0.0 1.6 0.00 0.64 0.64 53 1008.2
20260509225142 21 187 6.4 6.4 0.00 0.64 0.64 50 1008.4
20260509224638 21 188 3.2 4.8 0.00 0.64 0.64 50 1008.5
20260509224135 22 186 3.2 3.2 0.00 0.64 0.64 50 1008.3
20260509223632 22 149 0.0 1.6 0.00 0.64 0.64 53 1008.4
20260509223130 22 203 3.2 3.2 0.00 0.64 0.64 50 1008.4
20260509222627 22 183 1.6 1.6 0.00 0.64 0.64 50 1008.4
20260509222122 22 196 1.6 1.6 0.00 0.64 0.64 52 1008.4
20260509221618 22 191 1.6 1.6 0.00 0.64 0.64 51 1008.4